Weather History for Crestview, FL

Change the Weather History Date:

Saturday, January 7, 2012

  Actual Average Record
Temperature  
Mean Temperature 60 °F -  
Max Temperature 73 °F 65 °F 81 °F (1982)
Min Temperature 46 °F 45 °F 17 °F (2014)
Degree Days  
Heating Degree Days 6    
Growing Degree Days 10 (Base 50)    
Moisture  
Dew Point 53 °F    
Average Humidity 88    
Maximum Humidity 100    
Minimum Humidity 53    
Precipitation  
Precipitation 0.01 in - - ()
Sea Level Pressure  
Sea Level Pressure 30.15 in    
Wind  
Wind Speed 1 mph (SSW)    
Max Wind Speed 12 mph    
Max Gust Speed -    
Visibility 4 miles    
Events Fog    
Averages and records for this station are not official NWS values.
T = Trace of Precipitation, MM = Missing Value Source: NWS Daily Summary

Daily Weather History Graph

Daily Weather History Graph

Search for Another Location

Airport:

Trip Planner

Search our weather history database for the weather conditions in past years. The results will help you decide how hot, cold, wet, or windy it might be!

Date:

Astronomy

Jan. 07, 2012 Rise Set
Actual Time 6:44 AM CST 4:59 PM CST
Civil Twilight 6:18 AM CST 5:26 PM CST
Nautical Twilight 5:48 AM CST 5:56 PM CST
Astronomical Twilight 5:19 AM CST 6:25 PM CST
Moon 3:44 PM CST (1/7) 5:14 AM CST (1/7)
Length of Visible Light 11h 08m
Length of Day
10h 15m
Waxing Gibbous, 97% of the Moon is Illuminated
Jan 7
Waxing Gibbous
Jan 9
Full
Jan 16
Last Quarter
Jan 23
New
Jan 30
First Quarter

Hourly Weather History & Observations

Time (CST) Temp. Dew Point Humidity Pressure Visibility Wind Dir Wind Speed Gust Speed Precip Events Conditions
12:53 AM 52.0 °F 50.0 °F 93% 30.11 in 0.2 mi Calm Calm - N/A Fog Fog
1:53 AM 48.9 °F 48.0 °F 97% 30.12 in 0.2 mi Calm Calm - N/A Fog Fog
2:53 AM 46.9 °F 46.0 °F 97% 30.12 in 0.2 mi Calm Calm - N/A Fog Fog
3:53 AM 46.9 °F 46.0 °F 97% 30.12 in 0.2 mi Calm Calm - N/A Fog Fog
4:53 AM 46.9 °F 46.0 °F 97% 30.13 in 0.5 mi Calm Calm - N/A Fog Fog
5:38 AM 46.4 °F 44.6 °F 93% 30.13 in 0.8 mi Calm Calm - N/A   Mist
5:53 AM 46.4 °F 44.6 °F 93% 30.13 in 0.2 mi Calm Calm - N/A Fog Fog
6:53 AM 46.0 °F 45.0 °F 96% 30.14 in 0.2 mi Calm Calm - 0.01 in Fog Fog
7:53 AM 48.0 °F 46.9 °F 96% 30.16 in 0.2 mi Calm Calm - N/A Fog Fog
8:24 AM 51.8 °F 51.8 °F 100% 30.17 in 1.0 mi Calm Calm - N/A   Mist
8:31 AM 53.6 °F 51.8 °F 94% 30.17 in 3.0 mi Calm Calm - N/A   Overcast
8:53 AM 55.0 °F 54.0 °F 96% 30.17 in 8.0 mi Calm Calm - N/A   Scattered Clouds
9:53 AM 66.0 °F 57.9 °F 75% 30.18 in 10.0 mi SSW 6.9 mph - N/A   Clear
10:53 AM 71.1 °F 55.9 °F 59% 30.16 in 10.0 mi SSW 6.9 mph - N/A   Clear
11:53 AM 73.9 °F 55.9 °F 53% 30.13 in 10.0 mi SW 8.1 mph - N/A   Scattered Clouds
12:53 PM 73.9 °F 55.9 °F 53% 30.11 in 10.0 mi SSW 8.1 mph - N/A   Scattered Clouds
1:53 PM 73.4 °F 55.4 °F 53% 30.10 in 10.0 mi South 8.1 mph - N/A   Partly Cloudy
2:53 PM 72.0 °F 57.9 °F 61% 30.11 in 10.0 mi South 11.5 mph - N/A   Scattered Clouds
3:53 PM 70.0 °F 57.0 °F 63% 30.12 in 10.0 mi South 9.2 mph - N/A   Mostly Cloudy
4:53 PM 68.0 °F 60.1 °F 76% 30.12 in 10.0 mi South 9.2 mph - N/A   Overcast
5:53 PM 66.0 °F 59.0 °F 78% 30.14 in 10.0 mi South 3.5 mph - N/A   Overcast
6:53 PM 64.0 °F 59.0 °F 84% 30.14 in 10.0 mi Calm Calm - N/A   Overcast
7:53 PM 59.0 °F 57.9 °F 96% 30.14 in 10.0 mi Calm Calm - N/A   Partly Cloudy
8:53 PM 60.1 °F 57.9 °F 93% 30.15 in 9.0 mi Calm Calm - 0.00 in   Scattered Clouds
9:32 PM 55.4 °F 53.6 °F 94% 30.16 in 1.8 mi Calm Calm - N/A   Clear
9:41 PM 55.4 °F 53.6 °F 94% 30.16 in 3.0 mi Calm Calm - N/A   Clear
9:53 PM 55.0 °F 54.0 °F 96% 30.16 in 4.0 mi Calm Calm - N/A   Scattered Clouds
10:40 PM 57.2 °F 55.4 °F 94% 30.16 in 1.8 mi Calm Calm - 0.00 in   Mostly Cloudy
10:48 PM 57.2 °F 55.4 °F 94% 30.16 in 0.8 mi Calm Calm - 0.00 in   Mostly Cloudy
10:53 PM 57.0 °F 55.0 °F 93% 30.16 in 0.8 mi Calm Calm - 0.00 in   Scattered Clouds
10:58 PM 55.4 °F 53.6 °F 94% 30.16 in 1.0 mi Calm Calm - N/A   Scattered Clouds
11:07 PM 55.4 °F 53.6 °F 94% 30.16 in 3.0 mi Calm Calm - N/A   Partly Cloudy
11:16 PM 55.4 °F 53.6 °F 94% 30.16 in 2.5 mi Calm Calm - N/A   Scattered Clouds
11:20 PM 55.4 °F 53.6 °F 94% 30.16 in 0.8 mi Calm Calm - N/A   Mostly Cloudy
11:22 PM 55.4 °F 53.6 °F 94% 30.16 in 0.5 mi Calm Calm - N/A Fog Fog
11:30 PM 55.4 °F 53.6 °F 94% 30.16 in 0.8 mi Calm Calm - N/A   Mostly Cloudy
11:34 PM 53.6 °F 53.6 °F 100% 30.16 in 2.0 mi Calm Calm - N/A   Mostly Cloudy
11:43 PM 55.4 °F 53.6 °F 94% 30.16 in 4.0 mi Calm Calm - N/A   Overcast
11:46 PM 53.6 °F 53.6 °F 100% 30.16 in 1.2 mi Calm Calm - N/A   Overcast
11:49 PM 53.6 °F 53.6 °F 100% 30.16 in 0.5 mi Calm Calm - N/A Fog Fog
11:53 PM 54.0 °F 53.1 °F 97% 30.16 in 0.5 mi Calm Calm - N/A Fog Fog
11:58 PM 53.6 °F 53.6 °F 100% 30.16 in 0.8 mi Calm Calm - N/A   Overcast